Time,TemperatureF,DewpointF,PressureIn,WindDirection,WindDirectionDegrees,WindSpeedMPH,WindSpeedGustMPH,Humidity,HourlyPrecipIn,Conditions,Clouds,dailyrainin,SoftwareType,DateUTC
2013-02-18 00:08:00,44.6,37.9,29.99,West,270,0.0,0.4,77,0.00,,,0.00,WUHU216HW,2013-02-18 08:08:00,
2013-02-18 00:14:00,44.6,37.9,30.00,West,270,0.9,0.9,77,0.00,,,0.00,WUHU216HW,2013-02-18 08:14:00,
2013-02-18 00:20:00,44.6,37.9,29.99,WNW,293,0.2,0.9,77,0.00,,,0.00,WUHU216HW,2013-02-18 08:20:00,
2013-02-18 00:28:00,44.5,37.7,29.99,West,270,0.0,2.0,77,0.00,,,0.00,WUHU216HW,2013-02-18 08:28:00,
2013-02-18 00:38:00,44.3,37.5,29.99,WSW,248,0.0,1.1,77,0.00,,,0.00,WUHU216HW,2013-02-18 08:38:00,
2013-02-18 00:48:00,44.3,37.5,29.99,WSW,248,0.0,0.0,77,0.00,,,0.00,WUHU216HW,2013-02-18 08:48:00,
2013-02-18 00:58:00,44.3,37.5,29.99,WSW,248,0.0,0.0,77,0.00,,,0.00,WUHU216HW,2013-02-18 08:58:00,
2013-02-18 01:08:00,44.3,37.5,29.99,WSW,248,0.0,0.2,77,0.00,,,0.00,WUHU216HW,2013-02-18 09:08:00,
2013-02-18 01:17:00,43.9,37.2,29.99,WSW,248,0.0,0.0,77,0.00,,,0.00,WUHU216HW,2013-02-18 09:17:00,
2013-02-18 01:22:00,43.9,37.2,29.99,West,270,0.0,0.0,77,0.00,,,0.00,WUHU216HW,2013-02-18 09:22:00,
2013-02-18 01:29:00,43.6,37.2,29.99,WNW,293,0.0,0.2,78,0.00,,,0.00,WUHU216HW,2013-02-18 09:29:00,
2013-02-18 01:37:00,43.4,37.3,29.99,NW,315,0.0,0.4,79,0.00,,,0.00,WUHU216HW,2013-02-18 09:37:00,
2013-02-18 01:47:00,43.2,37.1,29.99,West,270,0.0,0.4,79,0.00,,,0.00,WUHU216HW,2013-02-18 09:47:00,
2013-02-18 01:57:00,43.2,37.1,29.99,West,270,0.0,0.0,79,0.00,,,0.00,WUHU216HW,2013-02-18 09:57:00,
2013-02-18 02:07:00,43.2,37.1,29.99,West,270,0.0,0.0,79,0.00,,,0.00,WUHU216HW,2013-02-18 10:07:00,
2013-02-18 02:17:00,43.0,36.9,29.98,West,270,0.0,0.0,79,0.00,,,0.00,WUHU216HW,2013-02-18 10:17:00,
2013-02-18 02:26:00,42.8,36.7,29.98,WNW,293,0.4,0.4,79,0.00,,,0.00,WUHU216HW,2013-02-18 10:26:00,
2013-02-18 02:36:00,42.7,36.9,29.98,West,270,0.4,0.7,80,0.00,,,0.00,WUHU216HW,2013-02-18 10:36:00,
2013-02-18 02:46:00,42.7,36.9,29.98,West,270,0.0,0.4,80,0.00,,,0.00,WUHU216HW,2013-02-18 10:46:00,
2013-02-18 02:56:00,42.5,36.7,29.98,West,270,0.0,0.2,80,0.00,,,0.00,WUHU216HW,2013-02-18 10:56:00,
2013-02-18 03:06:00,42.3,36.5,29.98,West,270,0.0,0.0,80,0.00,,,0.00,WUHU216HW,2013-02-18 11:06:00,
2013-02-18 03:11:00,42.3,36.5,29.98,West,270,0.0,0.0,80,0.00,,,0.00,WUHU216HW,2013-02-18 11:11:00,
2013-02-18 03:17:00,42.1,36.4,29.98,West,270,0.0,0.0,80,0.00,,,0.00,WUHU216HW,2013-02-18 11:17:00,
2013-02-18 03:25:00,42.1,36.4,29.98,South,180,0.0,0.4,80,0.00,,,0.00,WUHU216HW,2013-02-18 11:25:00,
2013-02-18 03:35:00,41.9,36.2,29.97,SSW,203,0.0,0.2,80,0.00,,,0.00,WUHU216HW,2013-02-18 11:35:00,
2013-02-18 03:45:00,41.9,36.5,29.97,WNW,293,0.0,0.7,81,0.00,,,0.00,WUHU216HW,2013-02-18 11:45:00,
2013-02-18 03:55:00,41.9,36.5,29.97,SSW,203,0.7,0.7,81,0.00,,,0.00,WUHU216HW,2013-02-18 11:55:00,
2013-02-18 04:00:00,41.8,36.3,29.96,SSW,203,0.2,0.7,81,0.00,,,0.00,WUHU216HW,2013-02-18 12:00:00,
2013-02-18 04:06:00,41.8,36.3,29.96,South,180,0.0,0.7,81,0.00,,,0.00,WUHU216HW,2013-02-18 12:06:00,
2013-02-18 04:15:00,41.6,36.1,29.96,South,180,0.0,0.4,81,0.00,,,0.00,WUHU216HW,2013-02-18 12:15:00,
2013-02-18 04:25:00,41.6,36.1,29.96,West,270,0.4,0.7,81,0.00,,,0.00,WUHU216HW,2013-02-18 12:25:00,
2013-02-18 04:34:00,41.4,35.9,29.96,WNW,293,0.0,0.7,81,0.00,,,0.00,WUHU216HW,2013-02-18 12:34:00,
2013-02-18 04:39:00,41.4,35.9,29.96,WNW,293,0.4,0.4,81,0.00,,,0.00,WUHU216HW,2013-02-18 12:39:00,
2013-02-18 04:46:00,41.4,36.3,29.96,WNW,293,0.0,0.4,82,0.00,,,0.00,WUHU216HW,2013-02-18 12:46:00,
2013-02-18 04:54:00,41.4,36.3,29.97,WNW,293,0.0,0.2,82,0.00,,,0.00,WUHU216HW,2013-02-18 12:54:00,
2013-02-18 05:04:00,41.4,36.3,29.97,WSW,248,0.0,0.2,82,0.00,,,0.00,WUHU216HW,2013-02-18 13:04:00,
2013-02-18 05:14:00,41.4,36.3,29.98,WSW,248,0.0,0.0,82,0.00,,,0.00,WUHU216HW,2013-02-18 13:14:00,
2013-02-18 05:19:00,41.4,36.3,29.98,WSW,248,0.0,0.0,82,0.00,,,0.00,WUHU216HW,2013-02-18 13:19:00,
2013-02-18 05:25:00,41.4,36.3,29.98,WSW,248,0.0,0.0,82,0.00,,,0.00,WUHU216HW,2013-02-18 13:25:00,
2013-02-18 05:33:00,41.4,36.3,29.98,WSW,248,0.0,0.0,82,0.00,,,0.00,WUHU216HW,2013-02-18 13:33:00,
2013-02-18 05:43:00,41.6,36.7,29.99,WSW,248,0.0,0.0,83,0.00,,,0.00,WUHU216HW,2013-02-18 13:43:00,
2013-02-18 05:53:00,41.9,37.1,29.99,WSW,248,0.0,0.0,83,0.00,,,0.00,WUHU216HW,2013-02-18 13:53:00,
2013-02-18 06:03:00,42.1,37.3,29.99,WSW,248,0.0,0.0,83,0.00,,,0.00,WUHU216HW,2013-02-18 14:03:00,
2013-02-18 06:13:00,42.7,37.8,29.98,WSW,248,0.0,0.0,83,0.00,,,0.00,WUHU216HW,2013-02-18 14:13:00,
2013-02-18 06:23:00,42.8,38.0,29.99,WSW,248,0.0,0.0,83,0.00,,,0.00,WUHU216HW,2013-02-18 14:23:00,
2013-02-18 06:28:00,43.2,38.3,29.98,WSW,248,0.0,0.0,83,0.00,,,0.00,WUHU216HW,2013-02-18 14:28:00,
2013-02-18 06:34:00,43.2,38.3,29.99,WSW,248,0.0,0.0,83,0.00,,,0.00,WUHU216HW,2013-02-18 14:34:00,
2013-02-18 06:42:00,43.6,38.7,30.00,WSW,248,0.0,0.0,83,0.00,,,0.00,WUHU216HW,2013-02-18 14:42:00,
2013-02-18 06:52:00,43.9,39.1,29.99,WSW,248,0.0,0.0,83,0.00,,,0.00,WUHU216HW,2013-02-18 14:52:00,
2013-02-18 07:02:00,44.1,39.2,29.99,WSW,248,0.0,0.0,83,0.00,,,0.00,WUHU216HW,2013-02-18 15:02:00,
2013-02-18 07:12:00,44.3,39.4,29.99,SSE,158,0.2,0.4,83,0.00,,,0.00,WUHU216HW,2013-02-18 15:12:00,
2013-02-18 07:22:00,44.5,39.6,29.99,SSE,158,0.4,0.4,83,0.00,,,0.00,WUHU216HW,2013-02-18 15:22:00,
2013-02-18 07:32:00,44.6,39.5,30.00,SSE,158,0.0,0.4,82,0.00,,,0.00,WUHU216HW,2013-02-18 15:32:00,
2013-02-18 07:41:00,44.8,39.7,30.00,SSE,158,0.2,0.2,82,0.00,,,0.00,WUHU216HW,2013-02-18 15:41:00,
2013-02-18 07:51:00,45.0,39.9,30.01,SSE,158,0.0,0.4,82,0.00,,,0.00,WUHU216HW,2013-02-18 15:51:00,
2013-02-18 07:56:00,45.2,40.1,30.01,SSE,158,0.4,0.7,82,0.00,,,0.00,WUHU216HW,2013-02-18 15:56:00,
2013-02-18 08:02:00,45.2,40.1,30.01,SSE,158,0.0,0.9,82,0.00,,,0.00,WUHU216HW,2013-02-18 16:02:00,
2013-02-18 08:11:00,45.5,40.4,30.01,SSE,158,0.4,0.4,82,0.00,,,0.00,WUHU216HW,2013-02-18 16:11:00,
2013-02-18 08:21:00,45.7,40.9,30.02,SE,135,0.4,0.7,83,0.00,,,0.00,WUHU216HW,2013-02-18 16:21:00,
2013-02-18 08:31:00,45.9,41.0,30.02,SSE,158,0.0,0.9,83,0.00,,,0.00,WUHU216HW,2013-02-18 16:31:00,
2013-02-18 08:41:00,46.3,41.4,30.01,SE,135,0.4,1.8,83,0.00,,,0.00,WUHU216HW,2013-02-18 16:41:00,
2013-02-18 08:50:00,46.4,41.6,30.01,South,180,0.7,1.1,83,0.00,,,0.00,WUHU216HW,2013-02-18 16:50:00,
2013-02-18 08:55:00,46.6,41.8,30.01,SSE,158,0.7,0.9,83,0.00,,,0.00,WUHU216HW,2013-02-18 16:55:00,
2013-02-18 09:01:00,46.6,41.8,30.01,SE,135,0.0,0.9,83,0.00,,,0.00,WUHU216HW,2013-02-18 17:01:00,
2013-02-18 09:10:00,47.0,42.1,30.02,SE,135,0.0,0.4,83,0.00,,,0.00,WUHU216HW,2013-02-18 17:10:00,
2013-02-18 09:20:00,47.3,42.5,30.02,SE,135,0.0,0.0,83,0.00,,,0.00,WUHU216HW,2013-02-18 17:20:00,
2013-02-18 09:25:00,47.5,42.6,30.02,SE,135,0.0,0.0,83,0.00,,,0.00,WUHU216HW,2013-02-18 17:25:00,
2013-02-18 09:31:00,47.7,42.8,30.02,East,90,0.9,0.9,83,0.00,,,0.00,WUHU216HW,2013-02-18 17:31:00,
2013-02-18 09:40:00,47.7,42.8,30.02,East,90,0.0,0.9,83,0.00,,,0.00,WUHU216HW,2013-02-18 17:40:00,
2013-02-18 09:45:00,47.7,42.8,30.02,East,90,0.0,0.9,83,0.00,,,0.00,WUHU216HW,2013-02-18 17:45:00,
2013-02-18 09:51:00,47.9,42.7,30.02,East,90,0.0,0.9,82,0.00,,,0.00,WUHU216HW,2013-02-18 17:51:00,
2013-02-18 09:59:00,48.1,42.8,30.02,East,90,0.4,0.7,82,0.00,,,0.00,WUHU216HW,2013-02-18 17:59:00,
2013-02-18 10:04:00,48.2,42.9,30.02,East,90,0.0,0.7,82,0.00,,,0.00,WUHU216HW,2013-02-18 18:04:00,
2013-02-18 10:10:00,48.6,43.7,30.02,East,90,0.7,0.7,83,0.00,,,0.00,WUHU216HW,2013-02-18 18:10:00,
2013-02-18 10:19:00,48.6,43.7,30.02,East,90,0.0,0.7,83,0.00,,,0.00,WUHU216HW,2013-02-18 18:19:00,
2013-02-18 10:29:00,49.0,44.0,30.02,North,0,0.0,0.2,83,0.00,,,0.00,WUHU216HW,2013-02-18 18:29:00,
2013-02-18 10:39:00,49.1,43.8,30.03,North,0,0.0,0.0,82,0.00,,,0.00,WUHU216HW,2013-02-18 18:39:00,
2013-02-18 10:49:00,49.5,44.2,30.02,North,0,0.0,0.2,82,0.00,,,0.00,WUHU216HW,2013-02-18 18:49:00,
2013-02-18 10:58:00,49.5,44.2,30.02,SSE,158,0.4,1.1,82,0.00,,,0.00,WUHU216HW,2013-02-18 18:58:00,
2013-02-18 11:08:00,49.7,44.4,30.02,South,180,1.3,1.3,82,0.00,,,0.00,WUHU216HW,2013-02-18 19:08:00,
2013-02-18 11:18:00,50.0,44.7,30.02,South,180,0.4,2.5,82,0.00,,,0.00,WUHU216HW,2013-02-18 19:18:00,
2013-02-18 11:28:00,50.2,44.9,30.02,South,180,0.2,1.8,82,0.00,,,0.00,WUHU216HW,2013-02-18 19:28:00,
2013-02-18 11:38:00,50.6,45.3,30.01,SSE,158,0.0,1.8,82,0.00,,,0.00,WUHU216HW,2013-02-18 19:38:00,
2013-02-18 11:48:00,50.9,45.3,30.01,South,180,1.8,2.2,81,0.00,,,0.00,WUHU216HW,2013-02-18 19:48:00,
2013-02-18 11:57:00,51.5,45.5,30.01,SSE,158,0.0,2.5,80,0.00,,,0.00,WUHU216HW,2013-02-18 19:57:00,
2013-02-18 12:07:00,51.8,45.9,30.01,South,180,0.4,1.1,80,0.00,,,0.00,WUHU216HW,2013-02-18 20:07:00,
2013-02-18 12:17:00,51.7,45.4,30.00,SSE,158,0.0,0.7,79,0.00,,,0.00,WUHU216HW,2013-02-18 20:17:00,
2013-02-18 12:22:00,51.5,45.2,30.00,South,180,0.0,1.8,79,0.00,,,0.00,WUHU216HW,2013-02-18 20:22:00,
2013-02-18 12:28:00,51.8,45.2,30.00,SSW,203,0.0,1.8,78,0.00,,,0.00,WUHU216HW,2013-02-18 20:28:00,
2013-02-18 12:37:00,51.8,45.2,29.99,South,180,0.0,0.7,78,0.00,,,0.00,WUHU216HW,2013-02-18 20:37:00,
2013-02-18 12:47:00,51.8,45.2,29.99,SSE,158,0.7,0.9,78,0.00,,,0.00,WUHU216HW,2013-02-18 20:47:00,
2013-02-18 12:56:00,52.4,45.4,29.98,SW,225,0.0,1.1,77,0.00,,,0.00,WUHU216HW,2013-02-18 20:56:00,
2013-02-18 13:06:00,52.7,45.4,29.98,SE,135,0.4,1.6,76,0.00,,,0.00,WUHU216HW,2013-02-18 21:06:00,
2013-02-18 13:16:00,52.6,45.2,29.98,SSW,203,0.2,0.7,76,0.00,,,0.00,WUHU216HW,2013-02-18 21:16:00,
2013-02-18 13:26:00,52.9,45.5,29.98,West,270,0.0,1.1,76,0.00,,,0.00,WUHU216HW,2013-02-18 21:26:00,
2013-02-18 13:31:00,52.9,45.2,29.98,SW,225,0.0,1.1,75,0.00,,,0.00,WUHU216HW,2013-02-18 21:31:00,
2013-02-18 13:37:00,52.9,45.2,29.97,WNW,293,0.9,1.1,75,0.00,,,0.00,WUHU216HW,2013-02-18 21:37:00,
2013-02-18 13:46:00,52.9,45.2,29.97,WNW,293,0.0,0.9,75,0.00,,,0.00,WUHU216HW,2013-02-18 21:46:00,
2013-02-18 13:51:00,52.9,45.2,29.97,WNW,293,0.0,0.2,75,0.00,,,0.00,WUHU216HW,2013-02-18 21:51:00,
2013-02-18 13:57:00,52.9,45.2,29.96,East,90,0.2,1.1,75,0.00,,,0.00,WUHU216HW,2013-02-18 21:57:00,
2013-02-18 14:05:00,53.3,45.5,29.96,South,180,1.3,2.2,75,0.00,,,0.00,WUHU216HW,2013-02-18 22:05:00,
2013-02-18 14:10:00,53.5,45.7,29.96,South,180,0.4,2.2,75,0.00,,,0.00,WUHU216HW,2013-02-18 22:10:00,
2013-02-18 14:17:00,53.5,45.7,29.96,ENE,68,0.0,1.6,75,0.00,,,0.00,WUHU216HW,2013-02-18 22:17:00,
2013-02-18 14:25:00,53.6,45.9,29.96,South,180,0.4,0.9,75,0.00,,,0.00,WUHU216HW,2013-02-18 22:25:00,
2013-02-18 14:35:00,53.6,45.5,29.96,South,180,0.4,0.4,74,0.00,,,0.00,WUHU216HW,2013-02-18 22:35:00,
2013-02-18 14:45:00,53.6,45.2,29.96,SE,135,0.2,1.1,73,0.00,,,0.00,WUHU216HW,2013-02-18 22:45:00,
2013-02-18 14:55:00,53.3,44.5,29.96,SE,135,0.0,0.7,72,0.00,,,0.00,WUHU216HW,2013-02-18 22:55:00,
2013-02-18 15:04:00,53.3,44.8,29.96,SE,135,0.0,0.4,73,0.00,,,0.00,WUHU216HW,2013-02-18 23:04:00,
2013-02-18 15:14:00,53.5,45.0,29.96,SE,135,0.4,0.4,73,0.00,,,0.00,WUHU216HW,2013-02-18 23:14:00,
2013-02-18 15:24:00,53.1,44.3,29.96,SE,135,0.0,0.7,72,0.00,,,0.00,WUHU216HW,2013-02-18 23:24:00,
2013-02-18 15:29:00,53.1,44.3,29.96,SE,135,0.0,0.4,72,0.00,,,0.00,WUHU216HW,2013-02-18 23:29:00,
2013-02-18 15:35:00,53.3,44.8,29.95,SE,135,0.0,0.7,73,0.00,,,0.00,WUHU216HW,2013-02-18 23:35:00,
2013-02-18 15:44:00,53.6,45.2,29.95,SE,135,0.0,0.4,73,0.00,,,0.00,WUHU216HW,2013-02-18 23:44:00,
2013-02-18 15:49:00,53.6,45.2,29.95,SE,135,0.2,0.2,73,0.00,,,0.00,WUHU216HW,2013-02-18 23:49:00,
2013-02-18 15:55:00,53.5,45.0,29.96,NNE,23,0.0,0.2,73,0.00,,,0.00,WUHU216HW,2013-02-18 23:55:00,
2013-02-18 16:03:00,53.5,45.0,29.95,NNE,23,0.0,0.4,73,0.00,,,0.00,WUHU216HW,2013-02-19 00:03:00,
2013-02-18 16:13:00,53.1,44.0,29.95,North,0,0.0,0.7,71,0.00,,,0.00,WUHU216HW,2013-02-19 00:13:00,
2013-02-18 16:23:00,52.9,43.0,29.96,NNW,338,1.1,1.3,69,0.00,,,0.00,WUHU216HW,2013-02-19 00:23:00,
2013-02-18 16:33:00,52.7,42.1,29.95,NNW,338,0.4,2.5,67,0.00,,,0.00,WUHU216HW,2013-02-19 00:33:00,
2013-02-18 16:43:00,52.4,41.0,29.95,WNW,293,2.5,2.7,65,0.00,,,0.00,WUHU216HW,2013-02-19 00:43:00,
2013-02-18 16:53:00,52.0,40.6,29.96,NNW,338,1.1,4.0,65,0.00,,,0.00,WUHU216HW,2013-02-19 00:53:00,
2013-02-18 16:58:00,51.8,40.9,29.96,WNW,293,3.1,4.0,66,0.00,,,0.00,WUHU216HW,2013-02-19 00:58:00,
2013-02-18 17:04:00,51.7,40.7,29.96,NW,315,1.3,3.8,66,0.00,,,0.00,WUHU216HW,2013-02-19 01:04:00,
2013-02-18 17:12:00,51.3,40.3,29.96,NW,315,2.5,3.8,66,0.00,,,0.00,WUHU216HW,2013-02-19 01:12:00,
2013-02-18 17:22:00,51.1,39.3,29.96,NNW,338,1.6,3.4,64,0.00,,,0.00,WUHU216HW,2013-02-19 01:22:00,
2013-02-18 17:32:00,51.1,39.3,29.96,NNW,338,2.2,2.9,64,0.00,,,0.00,WUHU216HW,2013-02-19 01:32:00,
2013-02-18 17:42:00,50.9,39.5,29.96,NW,315,1.6,2.5,65,0.00,,,0.00,WUHU216HW,2013-02-19 01:42:00,
2013-02-18 17:52:00,50.8,39.8,29.96,NNW,338,0.0,1.6,66,0.00,,,0.00,WUHU216HW,2013-02-19 01:52:00,
2013-02-18 18:02:00,50.6,39.3,29.96,NNW,338,0.4,2.7,65,0.00,,,0.00,WUHU216HW,2013-02-19 02:02:00,
2013-02-18 18:07:00,50.4,39.1,29.96,North,0,0.9,3.6,65,0.00,,,0.00,WUHU216HW,2013-02-19 02:07:00,
2013-02-18 18:13:00,50.4,39.1,29.96,North,0,1.3,3.6,65,0.00,,,0.00,WUHU216HW,2013-02-19 02:13:00,
2013-02-18 18:21:00,50.2,39.7,29.96,NNW,338,0.7,4.0,67,0.00,,,0.00,WUHU216HW,2013-02-19 02:21:00,
2013-02-18 18:27:00,50.0,39.5,29.96,NW,315,0.0,4.0,67,0.00,,,0.00,WUHU216HW,2013-02-19 02:27:00,
2013-02-18 18:32:00,50.0,39.9,29.96,WNW,293,0.4,1.6,68,0.00,,,0.00,WUHU216HW,2013-02-19 02:32:00,
2013-02-18 18:37:00,50.0,39.9,29.96,North,0,0.0,1.6,68,0.00,,,0.00,WUHU216HW,2013-02-19 02:37:00,
2013-02-18 18:42:00,49.9,39.7,29.97,NW,315,0.0,1.6,68,0.00,,,0.00,WUHU216HW,2013-02-19 02:42:00,
2013-02-18 18:47:00,49.9,39.7,29.96,NNW,338,0.4,1.3,68,0.00,,,0.00,WUHU216HW,2013-02-19 02:47:00,
2013-02-18 18:52:00,49.9,40.2,29.96,NNW,338,0.4,1.3,69,0.00,,,0.00,WUHU216HW,2013-02-19 02:52:00,
2013-02-18 18:59:00,49.7,40.0,29.96,WNW,293,0.7,1.1,69,0.00,,,0.00,WUHU216HW,2013-02-19 02:59:00,
2013-02-18 19:04:00,49.7,40.0,29.96,North,0,0.2,1.1,69,0.00,,,0.00,WUHU216HW,2013-02-19 03:04:00,
2013-02-18 19:10:00,49.7,40.0,29.96,NNW,338,0.0,1.1,69,0.00,,,0.00,WUHU216HW,2013-02-19 03:10:00,
2013-02-18 19:16:00,49.7,40.0,29.96,NNW,338,0.2,0.2,69,0.00,,,0.00,WUHU216HW,2013-02-19 03:16:00,
2013-02-18 19:21:00,49.7,40.0,29.96,NW,315,0.4,1.8,69,0.00,,,0.00,WUHU216HW,2013-02-19 03:21:00,
2013-02-18 19:26:00,49.5,39.8,29.96,NNW,338,0.2,1.8,69,0.00,,,0.00,WUHU216HW,2013-02-19 03:26:00,
2013-02-18 19:31:00,49.5,39.8,29.96,NNW,338,0.0,1.1,69,0.00,,,0.00,WUHU216HW,2013-02-19 03:31:00,
2013-02-18 19:36:00,49.5,40.1,29.96,NNW,338,0.0,0.9,70,0.00,,,0.00,WUHU216HW,2013-02-19 03:36:00,
2013-02-18 19:41:00,49.5,40.1,29.96,NNW,338,0.0,0.2,70,0.00,,,0.00,WUHU216HW,2013-02-19 03:41:00,
2013-02-18 19:46:00,49.5,40.1,29.96,NNW,338,0.2,0.9,70,0.00,,,0.00,WUHU216HW,2013-02-19 03:46:00,
2013-02-18 19:51:00,49.3,40.0,29.96,NNW,338,0.0,0.9,70,0.00,,,0.00,WUHU216HW,2013-02-19 03:51:00,
2013-02-18 19:56:00,49.3,40.0,29.96,NW,315,0.0,0.7,70,0.00,,,0.00,WUHU216HW,2013-02-19 03:56:00,
2013-02-18 20:01:00,49.3,40.0,29.96,WNW,293,0.0,1.1,70,0.00,,,0.00,WUHU216HW,2013-02-19 04:01:00,
2013-02-18 20:06:00,49.3,40.0,29.96,NW,315,0.7,1.1,70,0.00,,,0.00,WUHU216HW,2013-02-19 04:06:00,
2013-02-18 20:11:00,49.3,40.0,29.96,NNW,338,0.4,0.7,70,0.00,,,0.00,WUHU216HW,2013-02-19 04:11:00,
2013-02-18 20:17:00,49.3,40.0,29.96,NNW,338,0.2,0.9,70,0.00,,,0.00,WUHU216HW,2013-02-19 04:17:00,
2013-02-18 20:22:00,49.3,40.0,29.96,WNW,293,0.4,1.1,70,0.00,,,0.00,WUHU216HW,2013-02-19 04:22:00,
2013-02-18 20:27:00,49.1,39.8,29.96,NNW,338,0.7,1.1,70,0.00,,,0.00,WUHU216HW,2013-02-19 04:27:00,
2013-02-18 20:32:00,49.1,39.8,29.96,WNW,293,0.4,1.1,70,0.00,,,0.00,WUHU216HW,2013-02-19 04:32:00,
2013-02-18 20:37:00,49.1,39.8,29.96,WNW,293,0.0,0.4,70,0.00,,,0.00,WUHU216HW,2013-02-19 04:37:00,
2013-02-18 20:42:00,49.1,39.8,29.96,WNW,293,0.0,0.0,70,0.00,,,0.00,WUHU216HW,2013-02-19 04:42:00,
2013-02-18 20:47:00,49.1,39.8,29.96,WNW,293,0.0,0.0,70,0.00,,,0.00,WUHU216HW,2013-02-19 04:47:00,
2013-02-18 20:52:00,49.1,39.8,29.96,WNW,293,0.0,0.0,70,0.00,,,0.00,WUHU216HW,2013-02-19 04:52:00,
2013-02-18 20:57:00,49.1,39.8,29.96,WNW,293,0.0,0.0,70,0.00,,,0.00,WUHU216HW,2013-02-19 04:57:00,
2013-02-18 21:00:00,49.1,39.8,29.96,WNW,293,0.0,0.0,70,0.00,,,0.00,WUHU216HW,2013-02-19 05:00:00,
2013-02-18 21:01:00,49.1,39.8,29.96,WNW,293,0.0,0.0,70,0.00,,,0.00,WUHU216HW,2013-02-19 05:01:00,
2013-02-18 21:06:00,49.1,39.8,29.96,WNW,293,0.0,0.2,70,0.00,,,0.00,WUHU216HW,2013-02-19 05:06:00,
2013-02-18 21:11:00,49.1,39.8,29.96,WNW,293,0.0,0.2,70,0.00,,,0.00,WUHU216HW,2013-02-19 05:11:00,
2013-02-18 21:16:00,49.1,39.8,29.96,WNW,293,0.0,0.0,70,0.00,,,0.00,WUHU216HW,2013-02-19 05:16:00,
2013-02-18 21:21:00,49.0,39.6,29.96,WNW,293,0.0,0.0,70,0.00,,,0.00,WUHU216HW,2013-02-19 05:21:00,
2013-02-18 21:26:00,49.1,39.8,29.96,WNW,293,0.0,0.0,70,0.00,,,0.00,WUHU216HW,2013-02-19 05:26:00,
2013-02-18 21:31:00,49.1,39.8,29.96,WNW,293,0.0,0.0,70,0.00,,,0.00,WUHU216HW,2013-02-19 05:31:00,
2013-02-18 21:36:00,49.1,39.8,29.96,WNW,293,0.0,0.0,70,0.00,,,0.00,WUHU216HW,2013-02-19 05:36:00,
2013-02-18 21:41:00,49.0,39.6,29.97,WNW,293,0.0,0.0,70,0.00,,,0.00,WUHU216HW,2013-02-19 05:41:00,
2013-02-18 21:46:00,49.0,39.6,29.97,WNW,293,0.0,0.0,70,0.00,,,0.00,WUHU216HW,2013-02-19 05:46:00,
2013-02-18 21:51:00,48.8,39.4,29.97,WNW,293,0.0,0.0,70,0.00,,,0.00,WUHU216HW,2013-02-19 05:51:00,
2013-02-18 21:56:00,48.6,39.2,29.97,NW,315,0.2,0.2,70,0.00,,,0.00,WUHU216HW,2013-02-19 05:56:00,
2013-02-18 22:02:00,48.6,39.2,29.97,NNW,338,0.0,1.3,70,0.00,,,0.00,WUHU216HW,2013-02-19 06:02:00,
2013-02-18 22:07:00,48.6,39.6,29.97,WNW,293,0.7,1.8,71,0.00,,,0.00,WUHU216HW,2013-02-19 06:07:00,
2013-02-18 22:12:00,48.6,40.0,29.96,WNW,293,1.3,2.7,72,0.00,,,0.00,WUHU216HW,2013-02-19 06:12:00,
2013-02-18 22:17:00,48.4,39.8,29.97,WNW,293,0.4,3.1,72,0.00,,,0.00,WUHU216HW,2013-02-19 06:17:00,
2013-02-18 22:22:00,48.4,39.8,29.97,NW,315,0.0,3.1,72,0.00,,,0.00,WUHU216HW,2013-02-19 06:22:00,
2013-02-18 22:27:00,48.4,39.8,29.97,NW,315,1.1,2.0,72,0.00,,,0.00,WUHU216HW,2013-02-19 06:27:00,
2013-02-18 22:32:00,48.4,40.1,29.97,NW,315,0.7,2.9,73,0.00,,,0.00,WUHU216HW,2013-02-19 06:32:00,
2013-02-18 22:37:00,48.2,40.2,29.97,NW,315,1.1,2.9,74,0.00,,,0.00,WUHU216HW,2013-02-19 06:37:00,
2013-02-18 22:42:00,48.2,40.2,29.97,WNW,293,0.4,2.0,74,0.00,,,0.00,WUHU216HW,2013-02-19 06:42:00,
2013-02-18 22:47:00,48.1,40.4,29.97,WNW,293,1.1,2.0,75,0.00,,,0.00,WUHU216HW,2013-02-19 06:47:00,
2013-02-18 22:52:00,47.9,40.2,29.97,NNW,338,0.4,1.3,75,0.00,,,0.00,WUHU216HW,2013-02-19 06:52:00,
2013-02-18 22:57:00,47.7,40.4,29.96,WNW,293,0.7,1.3,76,0.00,,,0.00,WUHU216HW,2013-02-19 06:57:00,
2013-02-18 23:02:00,47.7,40.4,29.96,WNW,293,1.1,1.6,76,0.00,,,0.00,WUHU216HW,2013-02-19 07:02:00,
2013-02-18 23:07:00,47.7,40.4,29.96,WNW,293,0.9,1.6,76,0.00,,,0.00,WUHU216HW,2013-02-19 07:07:00,
2013-02-18 23:12:00,47.7,40.4,29.96,WSW,248,0.7,1.1,76,0.00,,,0.00,WUHU216HW,2013-02-19 07:12:00,
2013-02-18 23:17:00,47.5,40.6,29.95,West,270,0.2,1.1,77,0.00,,,0.00,WUHU216HW,2013-02-19 07:17:00,
2013-02-18 23:22:00,47.5,40.6,29.95,WNW,293,0.0,0.9,77,0.00,,,0.00,WUHU216HW,2013-02-19 07:22:00,
2013-02-18 23:27:00,47.5,40.6,29.95,WNW,293,0.9,0.9,77,0.00,,,0.00,WUHU216HW,2013-02-19 07:27:00,
2013-02-18 23:32:00,47.3,40.5,29.95,WNW,293,0.0,0.9,77,0.00,,,0.00,WUHU216HW,2013-02-19 07:32:00,
2013-02-18 23:37:00,47.3,40.5,29.95,WNW,293,0.0,0.9,77,0.00,,,0.00,WUHU216HW,2013-02-19 07:37:00,
2013-02-18 23:42:00,47.3,40.5,29.95,NW,315,0.0,0.7,77,0.00,,,0.00,WUHU216HW,2013-02-19 07:42:00,
2013-02-18 23:47:00,47.2,40.7,29.95,WNW,293,0.2,0.7,78,0.00,,,0.00,WUHU216HW,2013-02-19 07:47:00,
2013-02-18 23:52:00,47.3,40.8,29.95,WSW,248,0.0,1.1,78,0.00,,,0.00,WUHU216HW,2013-02-19 07:52:00,
2013-02-18 23:57:00,47.2,40.7,29.95,WNW,293,0.0,2.0,78,0.00,,,0.00,WUHU216HW,2013-02-19 07:57:00,